Location: Hope
(40.9110°N, 74.9680°W)
Time: 04:00:00
(UTC-05:00)

Tiangong 2 - Visible Passes

Search period start: 18 February 2018 00:00
Search period end: 28 February 2018 00:00
Orbit: 385 x 388 km, 42.8° (Epoch: 17 February)

Date Brightness Start Highest point End Pass type
(mag) Time Alt. Az. Time Alt. Az. Time Alt. Az.
18 Feb 1.1 18:44:37 10° WNW 18:47:47 70° N 18:49:09 30° E visible
19 Feb 1.5 19:22:29 10° W 19:25:23 57° SW 19:25:23 57° SW visible
20 Feb 1.0 18:23:30 10° WNW 18:26:42 88° SSW 18:29:25 13° ESE visible
20 Feb 4.0 20:00:42 10° W 20:01:42 16° WSW 20:01:42 16° WSW visible
21 Feb 2.3 19:01:28 10° W 19:04:25 35° SSW 19:05:49 23° SSE visible
22 Feb 3.9 19:40:27 10° WSW 19:41:51 12° SW 19:42:20 12° SSW visible
23 Feb 3.4 18:40:37 10° W 18:43:06 21° SSW 18:45:34 10° SSE visible
25 Feb 4.1 18:20:23 10° WSW 18:21:41 12° SW 18:22:59 10° SSW visible
